TimePDT,TemperatureF,Dew PointF,Humidity,Sea Level PressureIn,VisibilityMPH,Wind Direction,Wind SpeedMPH,Gust SpeedMPH,PrecipitationIn,Events,Conditions,WindDirDegrees,DateUTC
12:54 AM,42.1,39.9,92,30.06,10.0,South,10.4,-,0.00,Rain,Light Rain,180,2013-05-22 07:54:00
1:54 AM,42.1,39.9,92,30.06,10.0,South,9.2,-,0.02,Rain,Light Rain,180,2013-05-22 08:54:00
2:54 AM,42.1,39.9,92,30.06,10.0,South,9.2,-,0.03,Rain,Light Rain,190,2013-05-22 09:54:00
3:54 AM,41.0,37.9,89,30.05,10.0,SSW,10.4,-,0.10,Rain,Light Rain,210,2013-05-22 10:54:00
4:18 AM,41.0,39.2,93,30.04,10.0,SSW,6.9,-,0.01,,Overcast,200,2013-05-22 11:18:00
4:36 AM,41.0,39.2,93,30.04,10.0,SSW,6.9,-,0.01,Rain,Light Rain,200,2013-05-22 11:36:00
4:54 AM,41.0,39.0,93,30.05,10.0,South,6.9,-,0.02,Rain,Light Rain,190,2013-05-22 11:54:00
5:39 AM,41.0,37.4,87,30.04,10.0,South,10.4,-,0.01,Rain,Light Rain,190,2013-05-22 12:39:00
5:54 AM,41.0,37.9,89,30.04,9.0,South,9.2,-,0.01,Rain,Light Rain,180,2013-05-22 12:54:00
6:54 AM,41.0,39.0,93,30.04,9.0,South,8.1,-,0.01,Rain,Light Rain,190,2013-05-22 13:54:00
7:54 AM,43.0,39.9,89,30.03,9.0,South,12.7,-,0.00,,Overcast,180,2013-05-22 14:54:00
8:54 AM,44.1,41.0,89,30.03,9.0,South,12.7,-,N/A,,Overcast,190,2013-05-22 15:54:00
9:54 AM,46.0,41.0,83,30.02,9.0,SSW,13.8,21.9,0.00,,Overcast,200,2013-05-22 16:54:00
10:54 AM,48.0,42.1,80,30.02,10.0,SSW,13.8,21.9,N/A,,Overcast,200,2013-05-22 17:54:00
11:54 AM,48.9,41.0,74,30.02,10.0,SSW,17.3,25.3,N/A,,Overcast,210,2013-05-22 18:54:00
12:54 PM,48.9,41.0,74,30.02,10.0,SSW,17.3,25.3,N/A,,Overcast,200,2013-05-22 19:54:00
1:54 PM,51.1,42.1,71,30.02,10.0,SSW,17.3,-,N/A,,Overcast,210,2013-05-22 20:54:00
2:54 PM,55.0,44.1,67,30.02,10.0,SSW,13.8,23.0,N/A,,Mostly Cloudy,210,2013-05-22 21:54:00
3:54 PM,52.0,43.0,71,30.02,10.0,SSW,18.4,25.3,0.00,,Overcast,210,2013-05-22 22:54:00
4:54 PM,51.1,44.1,77,30.03,10.0,SW,15.0,19.6,0.00,,Overcast,230,2013-05-22 23:54:00
5:28 PM,50.0,44.6,82,30.03,10.0,SSW,16.1,-,N/A,,Overcast,210,2013-05-23 00:28:00
5:54 PM,50.0,45.0,83,30.04,10.0,SW,15.0,-,0.00,Rain,Light Rain,220,2013-05-23 00:54:00
6:54 PM,48.0,45.0,89,30.04,8.0,SSW,10.4,-,0.03,Rain,Light Rain,210,2013-05-23 01:54:00
7:54 PM,48.0,45.0,89,30.04,10.0,SSW,9.2,-,0.00,,Overcast,200,2013-05-23 02:54:00
8:19 PM,46.4,44.6,93,30.04,10.0,South,10.4,-,N/A,,Mostly Cloudy,190,2013-05-23 03:19:00
8:54 PM,46.9,44.1,90,30.05,10.0,South,9.2,-,N/A,,Overcast,190,2013-05-23 03:54:00
9:54 PM,46.0,42.1,86,30.06,10.0,South,10.4,-,N/A,,Overcast,190,2013-05-23 04:54:00
10:37 PM,46.4,42.8,87,30.05,10.0,South,6.9,-,N/A,,Overcast,190,2013-05-23 05:37:00
10:54 PM,46.0,42.1,86,30.05,10.0,South,8.1,-,N/A,,Overcast,190,2013-05-23 05:54:00
11:36 PM,46.4,42.8,87,30.04,10.0,South,6.9,-,N/A,,Overcast,170,2013-05-23 06:36:00
11:54 PM,46.0,42.1,86,30.04,10.0,South,9.2,-,N/A,,Overcast,170,2013-05-23 06:54:00